Regional Weather Roundup
Issued by NWS

Home | Current Version | Previous Version | Text Only | Print | Product List | Glossary On
Versions: 1 2 3 4 5 6 7 8 9 10 11 12 13 14 15 16 17 18 19 20 21 22 23 24 25 26 27 28 29 30 31 32 33 34 35 36 37 38 39 40 41 42 43 44 45 46 47 48 49 50
000
ASUS43 KLMK 091710
RWRKY
KENTUCKY REGIONAL WEATHER ROUNDUP
NATIONAL WEATHER SERVICE LOUISVILLE KY
100 PM EDT SUN MAY 09 2021

NOTE "FAIR" INDICATES FEW OR NO CLOUDS BELOW 12,000 FEET
WITH NO SIGNIFICANT WEATHER AND/OR OBSTRUCTIONS TO VISIBILITY.

KYZ001>023-026-027-061>063-070>075-091800-
WESTERN AND SOUTH CENTRAL KENTUCKY

CITY           SKY/WX    TMP DP  RH WIND       PRES   REMARKS
PADUCAH        LGT RAIN  68  63  84 SW13G21   29.78R
HENDERSON      LGT RAIN  64  60  87 S22G30    29.67R
OWENSBORO      LGT RAIN  64  64 100 SW20G28   29.70R
HOPKINSVILLE   CLOUDY    64  64 100 S12       29.79F
BOWLING GREEN  RAIN      63  59  87 SW10      29.81S FOG
GLASGOW        RAIN      62  56  82 SW9G17    29.84R
$$

KYZ024-025-028>034-038-045-046-053-091800-
NORTH CENTRAL KENTUCKY

CITY           SKY/WX    TMP DP  RH WIND       PRES   REMARKS
LOUISVILLE/SDF LGT RAIN  65  59  81 S32G52    29.64F
LOUISVILLE/LOU LGT RAIN  64  58  80 S31G53    29.64F
FORT KNOX      DRIZZLE   62  62  99 S16G25    29.71F
$$

KYZ035>037-039>044-047>052-055>060-089>105-091800-
NORTHEAST KENTUCKY

CITY           SKY/WX    TMP DP  RH WIND       PRES   REMARKS
LEXINGTON      LGT RAIN  58  53  84 S21G38    29.76R
COVINGTON      LGT RAIN  61  57  87 S20G31    29.58F
FRANKFORT      CLOUDY    64  54  69 S18G26    29.72S
$$

KYZ054-064>069-076>088-106>120-091800-
SOUTHEAST KENTUCKY

CITY           SKY/WX    TMP DP  RH WIND       PRES   REMARKS
JACKSON        CLOUDY    72  46  39 S10G23    29.81F
LONDON         PTSUNNY   72  47  40 SW21G32   29.84F
SOMERSET       CLOUDY    72  39  30 SW14G22   29.87R
MIDDLESBORO    PTSUNNY   72  50  45 S13G18    29.90F
MONTICELLO     CLOUDY    72  48  42 SW23G31   29.88R
$$




USA.gov is the U.S. government's official web portal to all federal, state and local government web resources and services.